| time (UTC) | temp F | wind direction | speed MPH | gust MPH | rain 1hr in | rain 24hr in | rain mn in | humidity % | barometer mb |
| 20260508161019 | 59 | 270 | 3.0 | 8.0 | 0.00 | 0.00 | 0.00 | 41 | 1010.0 |
| 20260508160019 | 59 | 293 | 4.0 | 9.0 | 0.00 | 0.00 | 0.00 | 43 | 1010.0 |
| 20260508155019 | 58 | 270 | 5.0 | 11.0 | 0.00 | 0.00 | 0.00 | 41 | 1010.1 |
| 20260508154019 | 58 | 293 | 6.0 | 12.0 | 0.00 | 0.00 | 0.00 | 42 | 1010.2 |
| 20260508153019 | 58 | 315 | 4.0 | 13.0 | 0.00 | 0.00 | 0.00 | 41 | 1010.2 |
| 20260508152019 | 58 | 293 | 4.0 | 9.0 | 0.00 | 0.00 | 0.00 | 41 | 1010.3 |
| 20260508151019 | 57 | 0 | 3.0 | 8.0 | 0.00 | 0.00 | 0.00 | 43 | 1010.3 |
| 20260508150019 | 58 | 248 | 3.0 | 10.0 | 0.00 | 0.00 | 0.00 | 42 | 1010.4 |
| 20260508145039 | 58 | 293 | 2.0 | 8.0 | 0.00 | 0.00 | 0.00 | 43 | 1010.4 |
| 20260508144019 | 57 | 270 | 2.0 | 4.0 | 0.00 | 0.00 | 0.00 | 48 | 1010.5 |
| 20260508143039 | 56 | 270 | 2.0 | 6.0 | 0.00 | 0.00 | 0.00 | 42 | 1010.5 |
| 20260508142039 | 56 | 0 | 3.0 | 7.0 | 0.00 | 0.00 | 0.00 | 43 | 1010.8 |
| 20260508141019 | 56 | 293 | 3.0 | 7.0 | 0.00 | 0.00 | 0.00 | 44 | 1011.0 |
| 20260508140019 | 56 | 270 | 3.0 | 6.0 | 0.00 | 0.00 | 0.00 | 44 | 1011.0 |
| 20260508135018 | 55 | 270 | 4.0 | 12.0 | 0.00 | 0.00 | 0.00 | 43 | 1011.1 |
| 20260508134019 | 55 | 270 | 3.0 | 10.0 | 0.00 | 0.00 | 0.00 | 43 | 1011.1 |
| 20260508133019 | 55 | 315 | 3.0 | 9.0 | 0.00 | 0.00 | 0.00 | 46 | 1011.2 |
| 20260508132019 | 55 | 270 | 3.0 | 8.0 | 0.00 | 0.00 | 0.00 | 45 | 1011.2 |
| 20260508131018 | 54 | 270 | 3.0 | 9.0 | 0.00 | 0.00 | 0.00 | 46 | 1011.2 |
| 20260508130019 | 54 | 315 | 2.0 | 10.0 | 0.00 | 0.00 | 0.00 | 46 | 1011.3 |
| 20260508125059 | 53 | 315 | 3.0 | 6.0 | 0.00 | 0.00 | 0.00 | 49 | 1011.3 |
| 20260508124018 | 53 | 248 | 3.0 | 8.0 | 0.00 | 0.00 | 0.00 | 48 | 1011.3 |
| 20260508123019 | 53 | 270 | 2.0 | 8.0 | 0.00 | 0.00 | 0.00 | 50 | 1011.3 |
| 20260508122019 | 52 | 293 | 1.0 | 3.0 | 0.00 | 0.00 | 0.00 | 51 | 1011.3 |
| 20260508121018 | 51 | 270 | 2.0 | 7.0 | 0.00 | 0.00 | 0.00 | 52 | 1011.2 |
| 20260508120059 | 50 | 315 | 1.0 | 3.0 | 0.00 | 0.00 | 0.00 | 53 | 1011.1 |
| 20260508115118 | 49 | 315 | 2.0 | 5.0 | 0.00 | 0.00 | 0.00 | 54 | 1011.2 |
| 20260508114018 | 49 | 315 | 2.0 | 5.0 | 0.00 | 0.00 | 0.00 | 56 | 1011.0 |
| 20260508113018 | 48 | 338 | 1.0 | 3.0 | 0.00 | 0.00 | 0.00 | 57 | 1011.0 |
| 20260508112018 | 47 | 315 | 2.0 | 4.0 | 0.00 | 0.00 | 0.00 | 59 | 1011.0 |
| 20260508111018 | 46 | 293 | 1.0 | 2.0 | 0.00 | 0.00 | 0.00 | 60 | 1010.8 |
| 20260508110018 | 45 | 0.0 | 2.0 | 0.00 | 0.00 | 0.00 | 61 | 1010.8 | |
| 20260508105018 | 44 | 0.0 | 2.0 | 0.00 | 0.00 | 0.00 | 63 | 1010.9 | |
| 20260508104018 | 44 | 158 | 1.0 | 4.0 | 0.00 | 0.00 | 0.00 | 64 | 1010.5 |
| 20260508103018 | 43 | 225 | 1.0 | 2.0 | 0.00 | 0.00 | 0.00 | 65 | 1010.4 |
| 20260508102018 | 43 | 0.0 | 0.0 | 0.00 | 0.00 | 0.00 | 65 | 1010.4 | |
| 20260508101019 | 43 | 0.0 | 2.0 | 0.00 | 0.00 | 0.00 | 63 | 1010.1 | |
| 20260508100018 | 43 | 180 | 1.0 | 3.0 | 0.00 | 0.02 | 0.00 | 63 | 1010.2 |
| 20260508095018 | 43 | 248 | 1.0 | 4.0 | 0.00 | 0.02 | 0.00 | 63 | 1010.1 |
| 20260508094018 | 43 | 248 | 1.0 | 3.0 | 0.00 | 0.02 | 0.00 | 64 | 1010.0 |
| 20260508093018 | 43 | 293 | 1.0 | 5.0 | 0.00 | 0.02 | 0.00 | 65 | 1010.1 |
| 20260508092018 | 42 | 0.0 | 3.0 | 0.00 | 0.02 | 0.00 | 67 | 1009.9 | |
| 20260508091018 | 42 | 248 | 1.0 | 4.0 | 0.00 | 0.02 | 0.00 | 68 | 1009.9 |
| 20260508090019 | 42 | 0.0 | 1.0 | 0.00 | 0.03 | 0.00 | 70 | 1009.8 | |
| 20260508085018 | 41 | 0.0 | 1.0 | 0.00 | 0.03 | 0.00 | 70 | 1009.9 | |
| 20260508084018 | 41 | 0.0 | 1.0 | 0.00 | 0.03 | 0.00 | 70 | 1009.8 | |
| 20260508083038 | 41 | 203 | 1.0 | 4.0 | 0.00 | 0.03 | 0.00 | 70 | 1010.0 |
| 20260508082018 | 41 | 0.0 | 2.0 | 0.00 | 0.03 | 0.00 | 71 | 1009.9 | |
| 20260508081018 | 41 | 225 | 1.0 | 3.0 | 0.00 | 0.03 | 0.00 | 71 | 1009.7 |
| 20260508080018 | 41 | 0.0 | 0.0 | 0.00 | 0.03 | 0.00 | 71 | 1009.4 | |
| 20260508075018 | 41 | 0.0 | 0.0 | 0.00 | 0.03 | 0.00 | 70 | 1009.0 | |
| 20260508074058 | 41 | 203 | 1.0 | 3.0 | 0.00 | 0.03 | 0.00 | 69 | 1008.9 |
| 20260508073018 | 41 | 0.0 | 2.0 | 0.00 | 0.03 | 0.00 | 68 | 1008.7 | |
| 20260508072018 | 42 | 0.0 | 2.0 | 0.00 | 0.03 | 0.00 | 67 | 1008.6 | |
| 20260508071018 | 42 | 0.0 | 1.0 | 0.00 | 0.03 | 0.00 | 65 | 1008.4 | |
| 20260508070018 | 43 | 0.0 | 2.0 | 0.00 | 0.03 | 0.00 | 64 | 1008.3 | |
| 20260508065018 | 43 | 0.0 | 1.0 | 0.00 | 0.03 | 0.00 | 63 | 1008.2 | |
| 20260508064018 | 43 | 0.0 | 0.0 | 0.00 | 0.03 | 0.00 | 62 | 1008.4 | |
| 20260508063018 | 44 | 0.0 | 2.0 | 0.00 | 0.03 | 0.00 | 62 | 1008.4 | |
| 20260508062018 | 44 | 0.0 | 2.0 | 0.00 | 0.03 | 0.00 | 61 | 1008.3 | |
| 20260508061017 | 44 | 0.0 | 1.0 | 0.00 | 0.03 | 0.00 | 61 | 1008.4 | |
| 20260508060038 | 45 | 0.0 | 2.0 | 0.00 | 0.03 | 0.00 | 61 | 1008.5 | |
| 20260508055018 | 45 | 0.0 | 0.0 | 0.00 | 0.03 | 0.00 | 60 | 1008.5 | |
| 20260508054018 | 45 | 0.0 | 0.0 | 0.00 | 0.03 | 0.00 | 60 | 1008.6 | |
| 20260508053018 | 45 | 0.0 | 1.0 | 0.00 | 0.03 | 0.00 | 60 | 1008.7 | |
| 20260508052018 | 46 | 45 | 1.0 | 2.0 | 0.00 | 0.03 | 0.00 | 60 | 1008.7 |
| 20260508051018 | 46 | 0.0 | 3.0 | 0.00 | 0.03 | 0.00 | 60 | 1008.7 | |
| 20260508050017 | 46 | 248 | 1.0 | 3.0 | 0.00 | 0.03 | 0.00 | 57 | 1008.9 |
| 20260508045018 | 47 | 0.0 | 2.0 | 0.00 | 0.03 | 0.00 | 57 | 1008.9 | |
| 20260508044018 | 47 | 0.0 | 1.0 | 0.00 | 0.03 | 0.00 | 56 | 1008.9 | |
| 20260508043018 | 47 | 0.0 | 1.0 | 0.00 | 0.03 | 0.00 | 56 | 1008.9 | |
| 20260508042018 | 48 | 0.0 | 2.0 | 0.00 | 0.03 | 0.00 | 55 | 1008.9 | |
| 20260508041038 | 48 | 270 | 1.0 | 3.0 | 0.00 | 0.03 | 0.00 | 55 | 1009.0 |
| 20260508040017 | 48 | 293 | 1.0 | 4.0 | 0.00 | 0.03 | 0.03 | 54 | 1009.1 |
| 20260508035018 | 48 | 225 | 1.0 | 2.0 | 0.00 | 0.03 | 0.03 | 55 | 1009.2 |
| 20260508034018 | 49 | 293 | 1.0 | 3.0 | 0.00 | 0.03 | 0.03 | 55 | 1009.1 |
| 20260508033018 | 49 | 248 | 1.0 | 2.0 | 0.00 | 0.03 | 0.03 | 55 | 1009.1 |
| 20260508032018 | 49 | 248 | 1.0 | 2.0 | 0.00 | 0.03 | 0.03 | 55 | 1009.0 |
| 20260508031018 | 49 | 225 | 1.0 | 3.0 | 0.00 | 0.03 | 0.03 | 54 | 1009.1 |
| 20260508030018 | 49 | 225 | 1.0 | 3.0 | 0.00 | 0.03 | 0.03 | 53 | 1009.0 |
| 20260508025018 | 49 | 293 | 1.0 | 4.0 | 0.00 | 0.03 | 0.03 | 54 | 1008.9 |
| 20260508024018 | 49 | 270 | 1.0 | 6.0 | 0.00 | 0.03 | 0.03 | 53 | 1009.1 |
| 20260508023018 | 49 | 0.0 | 3.0 | 0.00 | 0.03 | 0.03 | 53 | 1009.0 | |
| 20260508022018 | 49 | 270 | 1.0 | 2.0 | 0.00 | 0.03 | 0.03 | 53 | 1009.1 |
| 20260508021018 | 49 | 225 | 1.0 | 3.0 | 0.00 | 0.03 | 0.03 | 54 | 1009.1 |
| 20260508020018 | 50 | 203 | 1.0 | 2.0 | 0.00 | 0.04 | 0.03 | 54 | 1009.1 |
| 20260508015017 | 50 | 225 | 1.0 | 3.0 | 0.00 | 0.04 | 0.03 | 53 | 1009.2 |
| 20260508014018 | 50 | 248 | 1.0 | 4.0 | 0.00 | 0.04 | 0.03 | 51 | 1008.9 |
| 20260508013017 | 51 | 248 | 1.0 | 3.0 | 0.00 | 0.04 | 0.03 | 51 | 1008.9 |
| 20260508012017 | 52 | 338 | 1.0 | 4.0 | 0.00 | 0.04 | 0.03 | 48 | 1008.8 |
| 20260508011018 | 52 | 0.0 | 2.0 | 0.00 | 0.04 | 0.03 | 47 | 1008.6 | |
| 20260508010038 | 53 | 270 | 1.0 | 3.0 | 0.00 | 0.04 | 0.03 | 46 | 1008.4 |
| 20260508005018 | 53 | 270 | 1.0 | 6.0 | 0.00 | 0.04 | 0.03 | 47 | 1008.3 |
| 20260508004018 | 53 | 338 | 1.0 | 3.0 | 0.00 | 0.04 | 0.03 | 45 | 1008.1 |
| 20260508003038 | 54 | 293 | 2.0 | 7.0 | 0.00 | 0.04 | 0.03 | 44 | 1007.9 |
| 20260508002018 | 54 | 293 | 1.0 | 3.0 | 0.00 | 0.04 | 0.03 | 43 | 1007.9 |
| 20260508001017 | 55 | 293 | 1.0 | 4.0 | 0.00 | 0.04 | 0.03 | 42 | 1007.9 |
| 20260508000018 | 55 | 270 | 1.0 | 3.0 | 0.00 | 0.04 | 0.03 | 41 | 1007.9 |
| 20260507235018 | 56 | 270 | 3.0 | 9.0 | 0.00 | 0.04 | 0.03 | 40 | 1007.7 |
| 20260507234038 | 56 | 270 | 2.0 | 6.0 | 0.00 | 0.04 | 0.03 | 40 | 1007.7 |
| 20260507233018 | 57 | 270 | 3.0 | 11.0 | 0.00 | 0.04 | 0.03 | 39 | 1007.4 |
| 20260507232040 | 57 | 315 | 2.0 | 4.0 | 0.00 | 0.04 | 0.03 | 39 | 1007.4 |
| 20260507231121 | 57 | 225 | 3.0 | 9.0 | 0.00 | 0.04 | 0.03 | 38 | 1007.3 |
| 20260507230019 | 58 | 270 | 3.0 | 8.0 | 0.00 | 0.07 | 0.03 | 37 | 1007.3 |
| 20260507225038 | 59 | 203 | 4.0 | 9.0 | 0.00 | 0.07 | 0.03 | 38 | 1007.2 |
| 20260507224019 | 59 | 270 | 2.0 | 7.0 | 0.00 | 0.07 | 0.03 | 36 | 1007.0 |
| 20260507223040 | 60 | 248 | 2.0 | 7.0 | 0.00 | 0.07 | 0.03 | 36 | 1007.0 |
| 20260507222019 | 61 | 293 | 4.0 | 9.0 | 0.00 | 0.07 | 0.03 | 35 | 1006.9 |
| 20260507221039 | 61 | 293 | 1.0 | 4.0 | 0.00 | 0.07 | 0.03 | 37 | 1006.9 |
| 20260507220020 | 62 | 338 | 2.0 | 6.0 | 0.00 | 0.07 | 0.03 | 35 | 1006.9 |
| 20260507215019 | 62 | 293 | 3.0 | 5.0 | 0.00 | 0.07 | 0.03 | 34 | 1006.9 |
| 20260507214019 | 62 | 293 | 3.0 | 10.0 | 0.00 | 0.07 | 0.03 | 34 | 1006.8 |
| 20260507213019 | 62 | 315 | 3.0 | 7.0 | 0.00 | 0.07 | 0.03 | 34 | 1006.6 |
| 20260507212037 | 62 | 293 | 4.0 | 10.0 | 0.00 | 0.07 | 0.03 | 35 | 1006.6 |
| 20260507211019 | 62 | 270 | 4.0 | 9.0 | 0.00 | 0.07 | 0.03 | 34 | 1006.6 |
| 20260507210020 | 62 | 270 | 3.0 | 7.0 | 0.00 | 0.07 | 0.03 | 33 | 1006.4 |
| 20260507205019 | 63 | 293 | 4.0 | 9.0 | 0.00 | 0.07 | 0.03 | 35 | 1006.5 |
| 20260507204019 | 63 | 293 | 4.0 | 10.0 | 0.00 | 0.07 | 0.03 | 35 | 1006.4 |
| 20260507203019 | 63 | 293 | 4.0 | 8.0 | 0.00 | 0.07 | 0.03 | 37 | 1006.4 |
| 20260507202019 | 63 | 315 | 5.0 | 9.0 | 0.00 | 0.07 | 0.03 | 36 | 1006.3 |
| 20260507201019 | 63 | 270 | 5.0 | 11.0 | 0.00 | 0.07 | 0.03 | 38 | 1006.3 |
| 20260507200019 | 64 | 270 | 3.0 | 8.0 | 0.00 | 0.10 | 0.03 | 40 | 1006.4 |
| 20260507195020 | 63 | 315 | 3.0 | 8.0 | 0.00 | 0.10 | 0.03 | 35 | 1006.6 |
| 20260507194019 | 63 | 270 | 2.0 | 7.0 | 0.00 | 0.10 | 0.03 | 38 | 1006.6 |
| 20260507193019 | 63 | 315 | 4.0 | 9.0 | 0.00 | 0.10 | 0.03 | 37 | 1006.5 |
| 20260507192039 | 64 | 315 | 3.0 | 10.0 | 0.00 | 0.10 | 0.03 | 36 | 1006.7 |
| 20260507191039 | 64 | 293 | 3.0 | 11.0 | 0.00 | 0.10 | 0.03 | 36 | 1006.9 |
| 20260507190019 | 63 | 248 | 4.0 | 11.0 | 0.00 | 0.11 | 0.03 | 38 | 1006.9 |
| 20260507185020 | 63 | 270 | 3.0 | 11.0 | 0.00 | 0.11 | 0.03 | 35 | 1007.1 |
| 20260507184019 | 63 | 293 | 4.0 | 8.0 | 0.00 | 0.11 | 0.03 | 35 | 1007.1 |
| 20260507183019 | 63 | 293 | 3.0 | 11.0 | 0.00 | 0.11 | 0.03 | 36 | 1007.3 |
| 20260507182019 | 63 | 293 | 3.0 | 9.0 | 0.00 | 0.11 | 0.03 | 38 | 1007.2 |
| 20260507181019 | 63 | 270 | 4.0 | 9.0 | 0.00 | 0.11 | 0.03 | 33 | 1007.5 |
| 20260507180019 | 62 | 270 | 3.0 | 7.0 | 0.00 | 0.11 | 0.03 | 35 | 1007.4 |
| 20260507175019 | 63 | 270 | 5.0 | 13.0 | 0.00 | 0.11 | 0.03 | 34 | 1007.7 |
| 20260507174019 | 63 | 270 | 2.0 | 5.0 | 0.00 | 0.11 | 0.03 | 38 | 1007.6 |
| 20260507173019 | 62 | 270 | 4.0 | 10.0 | 0.00 | 0.11 | 0.03 | 41 | 1007.5 |
| 20260507172018 | 62 | 338 | 3.0 | 7.0 | 0.00 | 0.11 | 0.03 | 37 | 1007.5 |
| 20260507171019 | 62 | 293 | 5.0 | 13.0 | 0.00 | 0.11 | 0.03 | 42 | 1007.5 |
| 20260507170020 | 61 | 270 | 3.0 | 7.0 | 0.00 | 0.11 | 0.03 | 42 | 1007.8 |
| 20260507165019 | 62 | 0 | 2.0 | 6.0 | 0.00 | 0.11 | 0.03 | 43 | 1008.0 |
| 20260507164019 | 61 | 270 | 5.0 | 12.0 | 0.00 | 0.11 | 0.03 | 42 | 1008.1 |
| 20260507163039 | 61 | 248 | 3.0 | 5.0 | 0.00 | 0.11 | 0.03 | 41 | 1008.0 |
| 20260507162019 | 60 | 270 | 3.0 | 7.0 | 0.00 | 0.11 | 0.03 | 44 | 1008.3 |